Showing default

HORIZONS 3E, 43633

Orbit data source: Space-Track

HORIZONS 3E, 43633 is a payload satellite owned by Horizons (US) in GEO that was launched on Tue, 25 Sep 2018 UTC via an ARIANE 5ECA launch vehicle from the French Guiana (FRGUI). Payloads include a variety of satellites, spacecraft, and rockets equipped with specific instruments for various scientific and technological missions. These include communications satellites like Starlink; space stations such as the ISS; scientific satellites like the Hubble; Earth observation satellites from companies like Planet Labs, Umbra, and HawkEye 360; GPS; miniature CubeSats for education and research; and military/defense satellites.

Not visible in the next 10 days
HORIZONS 3E details
Identifier
43633, 2018-074B
Orbit
GEO
Last TLE update15 hours ago
Origin
Flag of USHorizons (US / ITSO)
ManufacturerBoeing/ES
MissionOperational Commercial Communications
Bus & MotorBSS-702MP, R-4D?
Mass6,441 kg wet, ~3,000 kg dry
Launch date (UTC)
2018-09-25 (6 years ago)
Launch vehicle
ARIANE 5ECA
Launch site
French Guiana (FRGUI)
Object type
Payload
Rocket body
Debris
Shape & HBRBox + 2 Pan, 35 m
Radar Cross Section56.564 m², Large (>1 m²)

Expand to show TLE details & history

TLE from 15 hours ago
0 HORIZONS 3E
1 43633U 18074B   24360.91990396 -.00000002  00000-0  00000-0 0  9993
2 43633   0.0442 196.7983 0001384  68.5725 329.7021  1.00272553 22949
Epoch: 2024-12-25T22:04Z
Definitive object data (Epoch: 2024-12-25T22:04:39.702Z)
Latitude-0.0118°
Longitude168.98547°
Altitude35,780.813 km
Speed3.075 km/s
True Right ascension15h 40m 13s
True Declination0° 00' 42"
Sunlit
Object was in daylight at TLE epoch
Visualization TLE readout
Latitude0.00275°
Longitude28.93342°
Altitude35,791.63 km
Speed3.074 km/s
Apparent Right ascension05h 53m 21s
Apparent Declination-5° 31' 12"
Sunlit
Object is in daylight
Visualization observer readout
Local Sidereal Time12:03:34
Azimuth267.391° W
Elevation-5.494°
Doppler factor1
Orbital elements
Apogee altitude35,793.286 km
Perigee altitude35,781.614 km
Semi-major axis42,165.587 km
Eccentricity0.0001384
Inclination0.0442°
RAAN196.7983°
Arg. of periapsis68.5725°
True anomaly329.6941°
Mean anomaly329.7021°
Eccentric anomaly329.6981°
Mean motion0.25067 °/min
BSTARUnknown
Orbital period1436.14 mins
Loading historical data...
43633 neighbors
Authenticating...
Loading maneuver chart data...
Loading historical data...
Loading historical data...
Loading historical data...
Loading historical data...
Loading historical data...
Loading historical data...
Loading historical data...
Other satellites on launch #74 in the year 2018 (2018-09-25 UTC)

HORIZONS 3E Visibility forecast

Observer location: undefined°, undefined

HORIZONS 3E is not visible in the next 10 days
Span
Click to sort rows by Start time (UTC) header in descending order
Start Az.
Max El. time (UTC)
Max El. Az.
Max El.
End time (UTC)
End Az.
|